{"data":{"norad_id":63424,"intl_designator":"2025-065AB","name":"STARLINK-33655","alt_names":[],"object_type":"PAYLOAD","status":"ACTIVE","operator":null,"country":"US","launch_date":"2025-03-31","launch_site_code":"AFETR","launch_vehicle":null,"mission":null,"orbit_class":"UNKNOWN","rcs_meters":null,"size_class":null,"mass_kg":null,"dimensions":null,"purposes":["comms"],"wikipedia_slug":null,"has_3d_model":false,"image_url":null,"decayed_at":null,"tle_current":{"epoch":"2026-09-20T15:51:26.424864Z","epoch_age_seconds":145011,"freshness":"FRESH","line1":"1 63424U 25065AB  26263.66072251  .00019133  00000+0  70271-3 0  9991","line2":"2 63424  42.9996  86.3082 0001220 273.1770  86.8942 15.27594064 82650","mean_motion":15.27594064,"eccentricity":0.000122,"inclination_deg":42.9996,"raan_deg":86.3082,"arg_perigee_deg":273.177,"mean_anomaly_deg":86.8942,"bstar":0.00070271,"rev_number":8265,"period_min":94.265880834164,"perigee_km":482.16992412124,"apogee_km":483.84404325326,"semimajor_km":6861.1439836873,"source":"CELESTRAK","updated_at":"2026-09-21T09:00:34.982906Z"}}}